Temperature
34 34 33 33 33 33 33 33 33 33 35 34 32 31 31 31 31 30 29 28 27 26 26 25 24 23 22 21 21 20 20 20 20 19 19 19 19 19 19 19 19 18 18 18
34 33 34 35 35 34 34 33 33 34 34 34 32 30 31 32 31 31 30 29 28 27 26 25 24 24 23 22 21 21 20 20 20 20 20 19 19 19 19 19 19 18 18 18
33 34 35 35 35 34 34 33 33 33 34 34 32 30 30 31 32 31 30 30 29 27 26 25 25 24 23 22 21 21 21 20 20 20 20 20 19 19 19 19 19 18 18 18
34 35 35 34 34 34 33 34 34 33 32 32 33 29 29 30 31 32 31 30 29 28 27 26 25 24 24 23 22 21 21 21 20 20 20 20 20 19 19 19 19 18 18 18
33 34 34 34 34 35 34 35 34 33 32 32 33 31 30 30 30 31 32 31 30 29 28 27 26 25 24 23 22 22 21 21 21 20 20 20 20 19 19 19 19 19 18 18
34 35 35 35 35 35 35 34 33 33 32 30 32 32 29 30 31 31 32 31 30 30 28 27 26 25 25 24 23 22 21 21 21 21 20 20 20 20 19 19 19 19 19 18
32 34 35 35 34 34 34 32 31 30 30 29 31 31 31 32 33 33 33 32 31 30 29 28 27 25 25 24 23 22 22 21 21 21 20 20 20 20 19 19 19 19 19 19
31 32 34 34 34 33 33 33 31 29 29 29 30 30 32 34 34 34 33 32 31 30 29 28 27 26 25 24 23 23 22 22 21 21 21 20 20 20 20 19 19 19 19 19
32 32 34 34 35 34 33 33 34 32 31 30 30 31 32 33 34 34 33 32 31 30 29 28 27 26 25 24 24 23 22 22 21 21 21 21 21 20 20 19 19 19 19 18
32 31 33 34 34 34 34 34 33 32 30 29 29 29 30 31 32 33 33 32 31 30 29 28 27 26 25 24 24 23 22 22 22 21 21 21 21 20 20 19 19 19 19 18
33 31 32 33 32 32 33 33 32 31 31 30 29 28 31 31 32 33 33 32 31 30 29 28 27 26 25 24 24 23 22 22 22 21 21 21 20 20 20 20 19 19 19 18
32 31 31 32 34 34 33 33 32 30 30 30 30 30 33 32 32 32 32 31 31 30 29 28 27 26 25 24 24 23 22 22 22 21 21 21 20 20 20 19 19 19 19 18
30 30 29 30 32 33 32 33 33 33 32 31 30 30 32 32 32 31 31 30 30 29 29 28 27 26 26 25 24 23 22 22 21 21 21 21 20 20 20 19 19 19 18 18
29 29 29 29 31 32 31 32 33 32 31 31 31 31 31 31 30 30 30 30 29 28 28 28 27 26 25 25 24 23 22 22 22 21 21 21 20 20 20 19 19 18 18 18
30 29 29 30 31 32 32 32 32 32 32 31 31 31 31 30 30 30 30 29 29 28 27 27 26 25 25 24 24 23 22 22 22 21 21 21 20 20 19 19 19 19 18 18
29 28 28 29 31 31 31 32 32 32 32 32 32 31 32 30 29 29 29 29 28 28 27 26 25 25 24 24 23 23 22 22 22 21 21 20 20 20 19 19 19 18 18 18
28 27 27 28 30 30 30 31 32 32 32 32 31 31 31 30 29 28 28 28 27 27 26 26 25 24 24 23 23 22 22 22 21 21 20 20 20 19 19 19 19 18 18 18
26 26 26 27 28 27 30 32 32 32 32 32 32 31 31 29 28 27 27 26 27 26 25 25 24 24 23 23 22 22 22 21 21 20 20 20 19 19 19 19 18 18 18 18
27 26 26 27 27 28 29 31 31 31 30 31 31 31 31 30 29 27 26 26 26 25 25 24 24 23 23 22 22 21 21 20 20 20 20 19 19 19 19 18 18 18 18 18
27 26 25 26 26 26 28 30 31 31 29 30 30 30 29 29 28 27 26 25 25 24 24 23 23 23 22 22 21 21 21 20 20 20 19 19 19 19 19 18 18 18 18 17
25 25 25 25 25 26 28 29 30 28 27 28 28 28 28 27 27 25 25 24 24 23 23 23 22 22 22 21 21 21 20 20 20 19 19 19 19 19 18 18 18 17 17 16
25 25 24 25 25 25 27 28 27 26 26 27 27 27 26 25 25 24 24 23 22 22 22 22 21 21 21 21 21 20 20 20 19 19 19 18 18 18 18 17 17 17 16 16
25 25 25 24 24 24 25 25 25 25 25 25 25 25 25 24 24 23 23 22 22 21 21 21 21 20 20 20 20 19 19 19 19 18 18 18 18 18 17 17 17 16 16 16
25 25 24 23 24 24 24 24 24 24 24 24 24 24 24 24 23 22 22 21 21 21 20 20 20 19 19 19 19 19 19 18 18 18 17 17 17 17 17 17 16 16 16 16
23 24 24 23 23 23 23 23 23 23 23 23 23 23 23 22 22 21 21 20 20 20 20 19 19 18 18 18 18 18 18 17 17 17 17 17 16 16 16 16 16 16 16 16
22 22 22 22 23 23 21 22 22 22 22 22 22 22 22 22 21 20 20 19 19 19 19 18 18 18 18 17 17 17 17 17 17 16 16 16 16 16 16 16 16 16 16 16
Wind_Speed
13 13 12 10 10 10 8 7 4 3 5 6 6 9 13 15 15 15 14 14 14 13 13 12 11 12 12 10 9 7 6 5 3 2 1 2 1 1 2 2 3 2 1 2
13 16 15 12 11 10 8 6 5 4 3 4 6 6 10 14 15 15 15 15 14 14 14 13 12 12 12 11 10 8 7 6 5 3 2 1 1 1 2 2 3 3 3 2
17 14 12 12 11 10 8 7 6 4 4 6 5 5 7 11 13 14 15 15 15 16 16 15 14 12 12 11 11 9 8 7 6 5 3 2 1 0 1 3 3 2 2 2
17 15 12 13 13 12 9 7 6 6 6 5 6 5 9 10 13 15 15 15 15 15 16 16 15 13 12 12 11 9 8 7 6 5 3 3 3 2 2 2 3 2 2 2
16 15 14 14 14 12 10 6 6 7 9 9 8 5 6 8 11 13 14 16 16 16 16 16 15 13 13 13 12 10 9 7 6 5 4 3 2 2 3 3 4 3 2 2
17 14 14 14 13 12 10 8 8 10 9 10 10 6 6 9 11 13 14 14 14 15 15 15 15 13 12 12 12 12 10 8 7 6 5 3 2 2 2 2 2 2 3 2
18 18 16 14 14 14 13 10 7 8 8 8 8 6 4 9 11 12 13 13 14 14 14 15 15 14 13 13 12 12 11 9 8 7 5 5 4 3 2 1 1 0 2 2
17 17 17 15 15 14 15 15 11 9 7 4 5 5 4 7 9 10 11 12 14 14 14 14 14 14 13 13 12 12 12 10 9 8 6 5 4 3 2 1 0 1 1 2
14 15 15 16 15 17 15 15 15 13 11 7 6 5 3 6 9 10 11 12 13 14 15 15 15 14 14 13 12 12 12 10 9 8 7 5 4 3 2 3 2 1 1 2
15 12 14 15 14 17 17 14 10 11 8 9 6 7 4 7 9 11 11 12 12 13 14 15 14 14 13 13 12 12 12 10 10 9 8 7 6 5 3 2 3 2 2 3
18 14 14 15 16 17 16 16 12 9 9 9 6 4 3 5 5 9 11 11 12 13 13 13 13 13 14 13 13 12 12 11 10 8 7 6 7 6 5 4 3 3 2 2
14 13 13 15 15 16 16 17 16 11 9 9 9 5 7 6 5 5 9 10 10 10 11 13 13 13 13 14 13 12 12 11 10 9 8 6 6 6 5 5 4 4 3 2
9 10 12 13 14 16 16 17 18 16 12 11 11 4 4 4 3 3 6 9 8 8 9 10 12 12 12 12 12 12 12 11 11 10 9 8 7 6 5 5 4 4 3 3
7 12 14 15 13 13 15 17 17 16 12 12 11 7 5 4 2 2 5 8 8 8 7 8 10 10 11 11 11 11 11 11 10 10 9 8 7 7 6 5 5 4 4 4
9 13 16 18 15 13 15 17 18 18 16 12 8 8 7 6 4 4 5 7 7 8 8 7 8 9 10 10 11 10 10 9 9 9 9 8 7 7 6 5 5 4 4 4
9 10 14 17 17 17 17 16 17 18 16 15 11 8 3 7 5 4 4 6 7 7 7 7 7 9 9 10 10 10 9 9 9 9 9 9 8 8 7 6 5 5 4 4
9 9 12 15 17 16 18 16 16 14 14 12 11 7 3 6 6 5 4 4 6 6 6 6 6 8 8 9 9 10 9 9 9 9 8 9 9 8 7 7 6 5 5 4
8 8 9 14 14 17 13 13 13 13 11 10 8 6 6 7 8 7 5 4 5 5 5 5 6 7 8 8 9 9 9 9 9 9 8 8 9 8 7 7 6 5 4 4
10 8 10 12 15 15 12 12 12 11 9 7 5 3 4 5 7 6 5 5 5 4 4 4 4 6 7 9 9 8 9 9 8 8 8 8 8 8 8 7 6 6 5 5
13 9 11 12 14 13 10 9 8 8 8 5 3 2 3 3 3 3 5 6 6 5 5 5 5 6 7 8 8 9 8 8 8 8 8 8 7 7 7 7 6 6 5 5
14 13 15 15 14 10 8 7 8 10 4 2 2 2 3 3 3 4 5 6 6 6 5 6 5 5 5 7 8 8 7 7 6 7 7 7 7 7 8 7 6 6 5 5
13 13 14 14 14 9 3 5 4 1 4 3 3 4 5 6 6 6 6 6 6 5 5 5 5 5 5 6 7 7 6 5 5 6 6 7 7 7 8 7 6 6 6 5
11 9 7 6 5 1 3 4 3 4 4 3 3 3 5 4 5 5 5 6 5 5 4 4 5 5 5 5 5 5 5 5 5 5 6 6 6 6 7 8 7 6 5 5
9 6 6 4 3 3 2 3 2 2 3 2 1 2 3 4 5 5 5 4 4 3 3 4 5 4 4 4 4 4 4 5 5 5 5 6 6 6 6 6 6 6 6 6
6 4 6 5 5 2 2 2 1 1 2 2 2 2 2 3 4 5 4 4 3 3 3 3 3 3 3 4 4 4 4 4 5 5 5 5 6 5 5 5 3 4 3 4
6 4 4 4 3 2 2 0 1 1 2 2 2 2 2 3 4 4 4 4 3 3 3 3 3 3 3 4 4 3 4 4 4 4 4 5 5 5 5 5 2 3 2 4
Wind_Direction
224 232 232 222 216 223 235 240 209 183 168 169 150 152 170 173 177 174 174 172 170 171 164 160 164 156 152 149 151 156 160 152 159 157 167 169 164 161 129 123 102 106 84 65
230 232 236 229 227 225 237 250 235 194 177 188 153 173 190 182 184 181 178 175 173 171 167 165 169 165 161 159 161 164 168 165 171 164 167 175 155 146 130 104 103 88 81 51
234 234 232 239 237 239 239 247 255 236 228 215 180 185 198 203 189 182 181 178 176 176 173 171 175 173 167 166 171 174 173 168 173 166 175 165 139 147 143 132 116 101 93 80
237 238 235 237 240 244 243 245 251 243 245 250 227 196 198 202 196 186 184 184 183 179 175 174 176 175 172 171 170 163 164 164 165 173 182 187 179 174 141 129 127 137 117 106
237 235 233 238 240 243 250 249 259 253 251 259 251 227 174 199 198 191 187 186 185 180 176 175 176 174 175 171 166 162 159 162 167 174 185 195 186 165 138 125 138 153 141 124
246 241 236 238 242 243 250 249 255 252 253 255 262 252 185 189 189 189 186 182 183 177 174 172 171 167 171 168 165 162 159 164 166 176 178 167 159 122 106 118 158 179 153 125
236 239 233 235 240 235 236 237 244 247 239 251 261 250 186 172 180 178 174 177 178 174 170 169 168 168 169 168 166 159 159 165 168 171 172 167 173 164 158 175 163 206 108 110
226 229 225 223 233 235 230 236 236 247 246 246 266 241 189 160 156 153 163 171 174 173 170 169 169 169 170 170 162 158 161 166 168 167 168 169 173 173 162 171 158 93 84 86
234 230 216 217 225 237 236 237 244 250 260 257 231 230 201 166 151 152 157 162 170 174 171 171 171 171 170 168 163 159 158 161 163 162 160 159 156 161 158 140 129 52 55 99
250 251 230 211 218 232 240 245 249 251 257 263 237 237 214 171 163 161 157 160 162 165 170 172 171 171 168 167 161 156 156 160 163 167 172 167 165 159 156 141 126 104 70 50
243 252 244 217 212 225 225 236 246 258 260 262 253 228 204 162 174 167 156 154 155 162 167 167 167 168 165 165 163 159 157 162 166 165 163 162 159 159 159 154 140 125 112 88
237 247 250 232 217 227 236 232 234 235 246 263 268 227 179 150 163 164 148 149 152 157 164 162 163 162 163 166 165 163 164 168 168 164 162 162 154 156 159 154 148 147 135 122
234 242 242 235 218 217 233 237 237 237 234 239 251 238 134 118 127 130 138 138 140 148 158 160 159 159 162 163 161 163 167 169 167 164 163 160 160 158 158 152 150 145 135 126
253 242 244 240 231 220 222 234 235 239 240 239 235 206 173 146 165 166 148 140 146 144 149 153 154 156 157 156 155 161 167 165 165 163 163 163 164 161 160 153 151 149 145 141
241 241 247 257 257 249 234 231 233 236 246 251 236 224 186 156 158 148 138 137 144 144 144 142 147 150 153 151 153 160 161 158 161 159 163 162 157 154 152 154 152 148 152 145
233 250 248 252 254 255 246 239 234 234 238 245 241 240 175 128 133 136 124 140 145 138 143 147 151 149 152 154 158 156 156 155 154 158 161 157 157 156 156 154 151 149 148 140
229 238 245 247 248 249 243 236 233 235 235 237 240 233 196 143 139 142 141 155 146 147 145 152 151 148 150 154 154 156 154 154 157 160 160 158 158 157 161 163 155 156 154 141
242 246 244 248 249 243 243 246 239 238 244 244 230 203 164 158 145 138 145 164 142 142 142 144 151 150 152 153 153 153 156 157 160 160 161 161 161 163 163 159 156 154 146 142
227 235 241 242 242 240 241 242 245 238 237 246 240 205 177 151 150 132 131 138 127 129 128 134 148 157 151 153 155 153 158 159 161 163 165 165 164 164 165 164 160 154 151 152
215 216 236 242 245 242 244 248 258 252 231 234 215 181 150 153 197 132 100 101 107 115 118 122 119 125 135 146 150 155 159 163 169 169 169 165 163 166 167 164 160 156 156 161
208 211 227 241 245 245 262 270 252 235 218 68 69 80 99 110 85 108 98 95 102 104 117 118 117 124 132 138 145 153 157 164 166 158 155 161 163 165 163 160 160 159 166 172
220 216 220 236 242 240 264 235 247 84 72 75 62 76 82 79 91 104 106 103 107 107 109 116 116 119 129 137 147 154 155 153 152 151 155 159 161 166 160 155 162 165 171 173
225 230 227 237 237 62 27 64 76 77 73 69 73 74 93 103 111 111 109 110 112 115 119 121 120 123 129 138 144 152 151 148 151 155 155 154 156 153 154 163 168 171 180 188
225 228 223 237 207 204 166 105 83 90 81 84 92 95 108 121 123 121 117 113 116 114 114 113 123 130 135 140 135 138 145 151 155 157 160 158 159 162 160 169 176 183 189 197
265 254 229 214 207 186 135 123 102 90 88 74 82 107 126 130 125 123 121 117 114 111 109 116 127 134 136 127 129 139 147 153 157 161 164 166 170 171 165 168 177 181 178 184
278 280 253 234 224 197 138 69 175 136 98 76 82 98 119 132 139 136 128 122 117 115 108 112 120 124 131 136 132 130 141 152 163 170 175 181 181 176 182 175 157 52 122 128
Height
1474 1476 1478 1474 1473 1476 1476 1480 1481 1477 1470 1476 1485 1490 1491 1494 1498 1502 1507 1511 1516 1520 1524 1527 1529 1532 1533 1535 1537 1538 1539 1541 1542 1543 1544 1544 1545 1545 1545 1545 1544 1544 1545 1545
1473 1474 1467 1465 1466 1468 1473 1478 1479 1474 1470 1475 1484 1491 1489 1490 1493 1497 1502 1507 1512 1517 1521 1524 1528 1530 1532 1534 1535 1537 1538 1540 1541 1542 1543 1544 1544 1545 1545 1545 1545 1545 1545 1545
1473 1467 1463 1464 1466 1469 1474 1477 1478 1479 1473 1473 1482 1495 1492 1489 1490 1494 1499 1503 1508 1513 1517 1521 1525 1528 1531 1532 1534 1536 1537 1539 1540 1542 1543 1544 1544 1544 1545 1545 1545 1545 1545 1546
1466 1461 1462 1465 1467 1468 1476 1467 1471 1475 1483 1487 1482 1505 1495 1489 1488 1489 1494 1499 1504 1508 1513 1518 1522 1526 1528 1531 1533 1535 1536 1538 1539 1541 1542 1543 1543 1544 1545 1545 1545 1545 1545 1545
1465 1460 1463 1467 1465 1464 1467 1465 1469 1473 1480 1486 1479 1492 1496 1489 1489 1487 1489 1494 1499 1504 1509 1514 1519 1523 1526 1529 1531 1533 1535 1537 1538 1539 1541 1542 1543 1544 1545 1545 1546 1546 1546 1545
1460 1457 1458 1461 1460 1461 1463 1468 1471 1473 1479 1499 1486 1489 1498 1485 1482 1482 1484 1489 1495 1500 1505 1511 1516 1520 1524 1527 1529 1531 1533 1535 1537 1539 1540 1541 1542 1543 1544 1545 1545 1546 1546 1545
1466 1459 1456 1458 1463 1462 1465 1478 1496 1501 1503 1504 1483 1485 1484 1470 1469 1473 1479 1485 1491 1497 1502 1508 1513 1517 1521 1525 1528 1530 1532 1534 1536 1537 1539 1540 1541 1542 1543 1544 1545 1545 1546 1545
1473 1472 1457 1456 1462 1466 1466 1472 1495 1511 1509 1502 1491 1490 1474 1463 1466 1470 1476 1482 1488 1494 1500 1505 1510 1515 1519 1523 1526 1528 1530 1532 1534 1536 1538 1539 1541 1542 1542 1543 1544 1544 1545 1544
1465 1465 1451 1453 1455 1459 1466 1467 1464 1479 1487 1499 1495 1483 1471 1463 1465 1469 1474 1480 1485 1492 1497 1503 1508 1512 1517 1520 1524 1526 1528 1531 1533 1535 1537 1538 1540 1541 1542 1543 1543 1543 1544 1544
1454 1464 1452 1450 1454 1456 1458 1461 1468 1478 1497 1507 1499 1493 1483 1472 1468 1469 1473 1478 1484 1490 1495 1500 1505 1510 1514 1518 1522 1525 1527 1529 1532 1534 1536 1537 1538 1540 1541 1541 1542 1542 1543 1543
1452 1462 1458 1452 1458 1462 1462 1465 1469 1473 1478 1496 1506 1501 1473 1470 1467 1467 1471 1477 1482 1488 1493 1498 1503 1508 1512 1516 1520 1523 1525 1528 1530 1532 1534 1536 1537 1539 1539 1540 1541 1541 1542 1542
1452 1458 1463 1454 1447 1450 1453 1459 1464 1481 1485 1482 1489 1487 1460 1462 1466 1467 1470 1476 1481 1486 1491 1496 1501 1505 1510 1514 1518 1521 1523 1526 1529 1531 1533 1535 1536 1537 1538 1539 1540 1541 1541 1541
1455 1462 1474 1469 1460 1453 1455 1454 1455 1459 1468 1479 1487 1484 1460 1462 1465 1469 1472 1476 1481 1486 1490 1494 1498 1503 1507 1512 1515 1518 1521 1524 1527 1529 1531 1533 1535 1536 1537 1538 1539 1540 1540 1540
1457 1460 1467 1472 1463 1454 1458 1456 1453 1458 1470 1474 1473 1475 1468 1466 1468 1471 1473 1476 1481 1486 1490 1493 1497 1501 1505 1509 1513 1516 1520 1522 1525 1527 1529 1531 1533 1534 1536 1537 1538 1539 1539 1539
1456 1462 1460 1455 1449 1448 1452 1453 1453 1457 1459 1467 1467 1466 1465 1467 1470 1473 1474 1476 1481 1485 1489 1492 1496 1500 1504 1507 1511 1515 1518 1520 1523 1525 1527 1529 1531 1533 1535 1536 1537 1538 1539 1539
1457 1462 1461 1460 1451 1450 1451 1449 1449 1452 1453 1457 1459 1463 1459 1464 1470 1472 1475 1478 1480 1484 1488 1492 1495 1498 1502 1505 1509 1512 1515 1518 1521 1523 1525 1527 1529 1531 1533 1534 1535 1536 1537 1538
1458 1464 1468 1466 1455 1454 1459 1449 1449 1450 1448 1453 1462 1460 1458 1464 1469 1474 1476 1478 1481 1485 1488 1491 1494 1497 1500 1503 1506 1509 1512 1515 1518 1521 1523 1525 1527 1529 1530 1532 1534 1535 1536 1537
1462 1466 1467 1466 1465 1477 1455 1440 1441 1446 1447 1447 1450 1454 1458 1463 1469 1473 1476 1479 1481 1484 1487 1491 1493 1496 1499 1502 1505 1508 1511 1514 1516 1518 1521 1523 1524 1526 1528 1530 1531 1533 1534 1535
1458 1465 1467 1467 1469 1463 1450 1443 1443 1448 1452 1449 1451 1454 1458 1462 1467 1472 1476 1478 1481 1484 1487 1490 1492 1495 1498 1500 1503 1506 1509 1512 1514 1516 1518 1520 1522 1524 1526 1528 1529 1530 1532 1533
1456 1460 1468 1466 1471 1473 1455 1443 1443 1446 1456 1451 1453 1456 1459 1462 1468 1473 1476 1478 1481 1484 1486 1489 1491 1494 1496 1499 1501 1504 1507 1510 1512 1514 1516 1518 1520 1522 1523 1525 1527 1528 1530 1531
1459 1463 1467 1467 1468 1461 1449 1446 1446 1460 1462 1455 1456 1459 1462 1465 1470 1475 1476 1478 1481 1484 1487 1489 1491 1493 1495 1497 1500 1503 1505 1507 1510 1512 1514 1516 1517 1518 1520 1522 1524 1526 1528 1529
1458 1459 1464 1465 1468 1467 1451 1450 1454 1458 1457 1458 1460 1462 1465 1468 1471 1474 1477 1480 1482 1485 1487 1489 1490 1492 1494 1496 1498 1501 1502 1505 1508 1509 1511 1513 1515 1516 1518 1520 1522 1524 1526 1527
1451 1452 1453 1458 1461 1456 1455 1456 1457 1458 1460 1461 1463 1465 1467 1470 1473 1476 1478 1481 1483 1485 1487 1489 1490 1492 1494 1495 1497 1499 1501 1503 1505 1507 1509 1511 1513 1514 1516 1518 1520 1522 1524 1526
1448 1447 1451 1456 1457 1456 1458 1459 1460 1461 1462 1463 1465 1467 1469 1471 1473 1476 1479 1481 1483 1485 1486 1488 1490 1491 1493 1495 1496 1498 1499 1501 1503 1505 1507 1509 1511 1512 1514 1516 1518 1519 1521 1523
1450 1450 1451 1455 1456 1457 1459 1460 1461 1462 1463 1465 1466 1468 1470 1472 1474 1477 1479 1481 1482 1485 1486 1488 1489 1491 1492 1494 1495 1496 1498 1499 1501 1503 1505 1507 1509 1510 1512 1513 1515 1516 1517 1518
1453 1453 1453 1455 1456 1458 1461 1461 1463 1463 1464 1466 1467 1469 1470 1472 1474 1476 1478 1480 1482 1484 1485 1487 1489 1490 1491 1492 1494 1495 1496 1497 1499 1501 1503 1505 1507 1508 1509 1510 1512 1513 1515 1516